Theta_e
308 308 308 308 306 306 306 307 307 308 308 310 310 310 311 311 310 310 309 308 308 307 308 309 310 311 311 311 311 310 308 308 307 307 307 307 307 306 306 307 309 312 312
307 310 313 311 307 308 306 306 307 308 308 309 310 311 310 311 311 311 310 309 309 308 308 309 310 311 311 311 311 310 308 308 307 307 307 306 306 306 305 305 306 307 309
312 312 313 315 310 310 307 306 306 308 308 308 309 309 311 311 312 311 310 310 309 309 308 309 310 311 311 312 311 310 309 308 308 307 307 306 306 305 305 304 305 306 306
312 310 313 314 315 311 307 307 307 308 309 310 310 311 313 312 311 311 312 311 310 310 309 309 310 311 311 312 312 311 309 308 308 308 307 307 306 306 305 304 304 304 304
315 312 311 315 315 313 308 307 308 308 308 311 312 311 311 312 312 312 312 312 311 310 310 310 310 311 311 312 312 311 310 309 309 308 308 308 307 306 305 304 304 304 304
317 312 312 312 314 312 308 307 307 308 309 309 309 309 309 309 310 311 312 312 312 311 311 311 311 311 311 312 312 312 311 309 309 309 309 308 308 307 306 305 304 304 304
319 315 312 313 316 313 309 311 310 309 309 310 311 310 311 313 314 312 312 312 312 312 312 311 311 311 312 312 312 312 312 310 309 309 309 309 309 308 307 306 306 305 305
317 316 314 312 312 314 312 310 309 308 308 311 311 310 313 316 316 318 317 313 312 312 313 312 312 311 311 312 312 312 312 311 310 309 309 309 309 309 309 308 307 307 306
318 317 317 315 314 313 313 312 311 310 309 310 314 311 315 318 320 319 320 318 315 313 312 313 312 312 312 312 313 313 312 312 311 310 309 309 310 310 310 309 309 308 308
320 319 319 317 316 315 315 313 312 312 311 309 311 314 312 313 315 314 319 319 318 317 314 313 313 312 312 312 312 313 312 312 311 310 309 309 309 310 310 310 310 309 309
321 320 320 320 318 317 317 316 316 315 314 312 310 311 315 315 313 312 312 311 316 319 318 317 314 313 311 311 312 312 313 312 311 311 310 309 309 309 310 310 310 310 310
322 321 321 320 319 319 318 318 317 316 316 315 314 313 312 315 315 314 314 314 313 312 315 316 316 316 313 311 311 312 312 312 312 311 310 309 309 309 309 309 310 310 310
321 321 321 321 321 320 319 318 318 318 317 317 316 315 315 313 313 314 315 315 315 313 315 316 316 315 315 315 314 313 312 312 312 311 311 310 309 309 308 309 309 309 310
312 312 314 316 317 319 320 320 319 319 318 318 318 317 317 316 315 315 315 315 314 314 313 311 312 312 313 314 314 314 315 315 312 312 311 311 311 309 308 308 308 308 309
304 306 308 309 312 314 316 318 318 319 319 319 319 318 318 317 317 316 316 316 316 316 315 313 312 313 315 316 316 315 314 315 315 315 314 312 312 311 311 309 308 308 308
302 302 302 303 306 308 311 314 316 317 318 318 318 318 318 318 318 318 317 317 317 316 316 315 314 314 316 317 316 314 314 313 314 314 314 314 314 314 312 311 311 310 308
301 302 301 301 302 302 304 308 312 315 315 316 317 318 318 318 318 318 318 318 317 317 316 316 316 315 315 314 314 314 313 312 312 312 314 314 315 314 314 314 313 312 311
300 301 301 301 301 301 302 303 303 306 310 312 314 315 315 316 317 317 317 317 317 317 317 317 317 316 316 316 316 315 315 315 314 313 312 311 311 311 313 314 314 314 314
299 299 300 300 301 300 301 301 301 300 300 303 307 308 310 312 314 315 315 315 316 316 317 316 316 316 316 316 316 316 315 315 315 315 314 314 313 313 312 311 311 311 313
297 298 298 299 299 299 300 300 300 300 299 299 300 303 305 307 308 310 313 314 314 314 315 316 315 316 316 315 316 316 315 315 315 315 315 315 315 314 314 313 313 312 311
296 296 296 297 298 297 299 299 299 299 298 298 298 300 305 305 306 306 307 307 308 310 312 313 313 314 315 315 315 316 316 316 316 316 316 315 315 314 314 314 314 314 314
295 295 295 296 296 297 298 299 299 297 297 297 298 301 303 304 305 305 305 306 309 309 309 310 310 311 311 312 314 315 314 315 315 315 315 315 315 314 314 313 313 313 313
294 294 295 295 296 296 297 298 298 298 298 300 302 302 303 304 304 304 304 304 304 304 303 307 308 309 310 311 312 312 313 313 314 313 314 314 314 314 313 313 313 313 313
293 293 294 295 296 296 296 296 296 297 297 298 300 301 302 303 302 302 302 301 302 301 300 301 304 305 307 308 309 310 309 309 309 310 311 312 312 312 311 311 312 312 312
292 292 293 294 294 294 295 294 294 294 294 295 296 297 298 299 300 300 300 299 299 298 298 298 299 302 305 306 307 307 306 305 304 304 306 308 307 307 310 310 310 309 311
291 291 292 292 292 293 292 292 291 292 292 292 293 293 295 296 296 297 297 297 297 298 299 299 299 299 302 303 303 304 305 306 307 307 308 309 309 309 310 310 311 312 312
Wind_Speed
3 2 3 4 4 3 2 2 1 2 2 1 2 1 1 4 3 5 3 3 3 3 3 3 3 3 3 2 2 3 4 4 5 5 5 6 6 5 5 4 7 8 7
3 2 3 6 4 5 4 4 4 4 3 2 4 5 5 7 7 7 6 5 5 5 5 5 5 5 5 4 4 5 5 6 5 5 5 6 6 5 5 5 6 7 7
6 3 5 7 6 8 6 5 5 5 4 4 4 5 5 6 7 8 8 7 7 7 7 7 7 7 7 6 6 6 7 7 5 5 5 5 5 5 6 6 7 8 8
8 8 8 7 8 10 7 7 6 6 5 5 6 5 6 9 9 9 10 10 9 8 9 9 9 9 9 8 7 7 8 8 7 5 5 5 5 6 6 6 6 8 9
8 8 7 6 7 12 9 7 7 7 6 5 6 7 10 11 11 11 11 12 12 11 10 10 11 12 11 10 9 9 9 10 9 7 5 5 6 6 6 6 6 7 8
8 8 7 8 9 12 8 8 8 8 8 8 10 11 11 11 12 13 13 14 14 13 13 13 13 13 13 12 11 11 11 11 10 10 8 7 6 6 6 6 6 7 8
10 9 8 7 9 10 9 8 9 9 9 8 9 8 9 10 9 13 12 15 16 14 14 16 15 14 15 15 14 14 13 13 12 12 11 9 8 7 7 7 7 8 8
8 9 9 9 8 11 11 9 11 11 10 7 9 9 5 6 8 11 15 15 15 17 17 16 18 16 17 16 15 16 16 15 14 14 13 12 11 10 9 9 8 8 8
6 7 8 10 10 11 13 12 12 12 11 8 9 7 4 3 4 6 8 13 14 17 20 18 18 18 18 18 17 17 18 18 17 16 16 15 14 13 12 11 10 10 9
9 10 10 10 10 11 14 13 12 14 14 13 12 12 12 13 6 5 5 8 10 11 15 22 20 19 20 20 21 20 19 19 19 19 18 18 17 17 15 14 13 13 12
10 10 11 12 12 12 13 15 15 14 16 15 14 13 14 15 15 18 20 14 14 10 11 13 17 21 22 22 22 23 20 20 21 22 22 21 21 20 19 18 17 16 15
6 10 12 14 16 15 16 15 15 16 17 19 17 16 17 17 16 12 16 19 21 20 18 20 21 19 21 23 24 24 23 22 23 24 25 24 24 23 22 22 21 20 19
8 9 10 12 13 14 15 18 18 18 18 19 19 20 20 20 21 22 22 23 23 24 19 17 22 21 20 22 23 25 27 26 25 26 27 27 27 27 26 26 25 24 23
3 6 9 13 15 16 16 16 18 20 21 22 22 21 21 22 21 22 23 24 27 29 28 27 24 25 24 22 23 25 25 26 27 28 29 30 30 31 31 30 29 29 28
9 9 9 8 8 8 11 15 17 19 20 20 20 21 23 22 22 24 24 25 25 29 32 28 21 18 19 21 20 21 26 25 26 27 30 32 34 34 34 34 33 33 33
11 11 10 9 8 8 7 8 10 13 15 16 18 21 21 22 23 22 23 24 26 28 33 32 27 17 11 18 22 24 21 20 23 27 28 30 32 36 38 38 37 37 37
10 12 12 12 11 10 8 8 7 7 9 13 15 18 19 21 23 23 23 23 26 28 32 35 33 30 28 29 28 30 31 31 29 27 26 26 28 31 34 37 40 40 41
10 11 13 12 13 12 9 12 12 10 8 9 12 14 16 17 18 20 22 24 27 27 28 33 34 32 30 28 29 30 32 34 34 31 32 33 35 35 35 34 34 36 40
12 11 12 12 14 14 12 16 14 14 13 12 11 13 15 16 18 19 19 20 22 24 26 28 32 32 31 29 30 30 29 32 34 36 34 35 35 35 35 37 38 40 41
16 15 13 14 15 16 14 19 20 18 17 15 14 13 13 13 15 17 19 21 22 22 22 23 26 29 30 29 28 30 30 28 29 31 33 33 33 34 35 35 35 37 40
17 15 16 16 15 15 14 21 25 24 22 19 16 14 13 15 16 16 17 16 17 21 26 29 29 27 28 26 26 26 27 28 28 28 31 33 32 31 33 34 34 35 36
18 17 16 15 16 16 13 19 24 24 19 15 14 12 13 15 13 16 17 16 16 17 20 19 21 22 27 32 31 24 25 26 31 28 31 33 32 34 33 34 35 35 35
19 18 14 14 15 13 14 17 20 17 13 9 10 11 12 10 15 19 22 22 22 21 17 17 18 21 25 23 24 26 25 32 36 35 35 40 38 40 35 33 33 36 37
15 13 10 11 10 7 12 14 17 19 17 14 13 11 12 10 12 18 20 22 26 24 21 20 19 21 23 24 25 29 32 35 37 35 33 42 39 40 37 36 33 32 32
10 10 8 9 9 12 13 19 22 22 22 17 15 16 15 15 18 22 24 25 30 31 25 21 25 27 28 29 28 30 33 35 37 35 30 33 33 35 33 34 33 31 26
7 6 6 7 7 9 12 18 17 16 14 14 12 13 12 13 15 18 20 22 24 20 20 23 25 18 10 11 13 15 20 27 31 35 26 29 33 31 36 34 19 18 20
Wind_Direction
242 259 313 325 320 335 312 297 311 297 106 153 253 318 138 318 286 265 250 235 231 223 225 213 188 177 173 190 221 245 236 203 164 145 136 126 119 115 117 121 120 124 118
279 317 304 302 299 311 296 294 284 287 255 233 215 238 232 212 244 258 264 243 234 232 230 233 225 211 215 221 242 260 256 234 185 154 144 133 123 123 119 117 131 132 125
276 255 247 285 297 277 297 293 289 292 280 269 267 249 254 255 245 252 260 258 239 232 227 232 234 231 229 233 246 258 263 253 219 174 157 145 134 133 133 124 126 130 129
264 232 241 251 284 287 288 287 285 281 279 297 280 252 266 266 251 247 252 257 250 235 226 229 233 236 234 236 245 252 260 259 245 211 176 152 148 144 146 140 134 131 130
267 270 254 269 275 286 290 285 281 285 273 257 273 281 260 254 257 249 246 255 250 248 236 227 231 233 234 238 242 250 254 256 253 240 207 174 170 165 166 163 153 145 139
284 273 270 264 255 279 288 286 285 279 283 281 276 273 283 276 265 256 249 251 254 247 246 242 230 234 235 234 239 245 249 250 254 251 237 210 195 182 179 179 175 167 160
277 287 280 270 278 284 279 281 282 278 280 289 299 294 285 283 283 271 261 257 256 255 244 247 240 233 236 234 234 240 244 247 248 249 246 233 219 206 195 195 191 190 185
268 285 294 288 275 278 287 279 276 277 274 276 281 300 325 325 288 299 285 273 262 256 255 246 246 241 236 236 237 237 238 241 242 244 245 242 234 226 215 211 209 207 205
279 289 290 289 284 280 284 284 283 283 275 259 276 273 282 237 286 287 294 290 281 266 259 256 250 244 243 241 234 238 239 239 239 240 241 243 241 236 231 227 223 222 221
271 271 278 283 281 275 280 291 282 283 280 272 249 263 264 260 282 272 267 295 306 301 276 260 258 254 247 245 243 236 238 240 239 239 240 242 244 243 239 238 235 233 232
274 273 275 282 282 282 278 275 284 278 285 283 274 257 262 275 265 260 280 279 277 287 296 295 276 260 253 249 247 248 238 239 240 239 239 240 243 245 246 245 243 241 241
286 292 288 271 265 262 269 276 274 272 270 280 281 273 258 256 271 273 274 284 281 273 285 286 281 278 263 255 253 252 253 245 242 242 241 241 243 245 247 249 249 248 247
235 240 250 262 272 276 274 268 267 271 274 273 276 277 276 268 264 262 261 268 278 277 267 268 278 282 278 268 262 259 257 254 249 245 244 243 243 245 247 249 251 252 252
318 304 285 274 270 263 257 265 277 275 271 270 274 275 275 274 270 271 272 273 276 276 278 276 276 277 280 278 270 263 260 257 253 249 248 247 246 246 247 248 250 252 253
12 1 353 345 336 308 283 267 262 268 276 278 281 280 276 278 276 271 267 271 271 277 284 287 290 294 294 284 289 277 268 264 258 256 253 251 250 250 249 248 249 251 253
3 355 353 352 345 337 328 310 297 292 287 282 279 277 280 281 281 283 279 274 269 269 271 278 277 267 286 288 288 284 282 274 265 261 259 257 257 256 255 254 252 252 252
351 345 346 343 338 337 342 318 298 282 283 283 282 278 278 275 276 273 270 274 275 274 272 283 284 284 276 268 272 277 278 276 273 269 265 262 262 262 262 260 259 259 258
338 340 336 334 330 335 331 311 313 300 291 289 288 283 282 279 286 285 282 277 270 270 275 280 288 288 286 285 279 274 276 280 279 273 272 269 266 264 263 262 262 261 260
318 316 321 324 325 324 325 309 309 314 309 300 296 297 295 291 282 275 278 283 282 279 277 278 283 288 289 288 287 282 277 274 276 280 281 280 276 272 268 265 263 263 263
306 309 304 305 303 305 312 302 299 300 305 308 305 300 306 309 298 290 281 273 274 276 279 281 283 286 289 294 293 292 290 287 283 281 283 283 281 278 276 273 270 268 264
309 305 299 297 298 301 308 293 293 295 301 301 303 303 296 289 296 301 297 294 282 272 269 271 275 280 288 293 292 297 294 297 295 292 289 288 287 282 280 280 277 271 269
318 309 305 303 299 297 300 301 296 301 311 315 316 307 304 296 291 286 288 283 285 294 291 294 295 295 285 282 278 285 287 289 290 290 294 293 291 289 287 285 285 283 281
311 318 322 318 312 323 302 300 305 309 305 292 285 285 283 285 284 282 277 276 274 275 274 282 298 298 298 299 298 293 286 282 279 281 284 286 288 290 293 291 288 287 286
327 334 330 329 336 324 309 315 310 311 303 283 277 277 283 279 284 297 298 297 292 292 287 272 276 285 276 276 276 279 284 286 286 284 283 281 286 287 293 293 293 290 287
321 322 325 309 294 289 305 308 312 306 307 307 303 285 279 292 291 293 293 300 301 302 303 290 275 269 267 269 274 281 286 292 294 296 299 298 296 298 299 295 293 293 292
319 323 301 305 313 306 319 320 3 1 343 336 324 310 301 288 310 319 305 311 315 324 328 321 312 311 323 318 319 310 305 299 301 302 306 300 303 303 299 299 302 300 289